737  
ASUS42 KCAE 170010  
RWRCAE  
REGIONAL WEATHER ROUNDUP  
NATIONAL WEATHER SERVICE COLUMBIA SC  
700 PM EST WED JAN 16 2019  
 
NOTE: "FAIR" INDICATES FEW OR NO CLOUDS BELOW 12,000 FEET WITH NO  
SIGNIFICANT WEATHER AND/OR S TO VISIBILITY
.  
 
NOT ALL STATIONS ARE QUALITY CONTROLLED BY THE NATIONAL  
WEATHER SERVICE. USE DATA WITH CAUTION...ESPECIALLY  
DEWPOINT OBSERVATIONS.  
 
SCZ001>056-GAZ040-063>065-077-170100-   
..UPSTATE SOUTH CAROLINA
 
 
 
CITY SKY/WX TMP DP RH WIND PRES REMARKS
 
ANDERSON FAIR 48 34 58 CALM 30.19R  
6HR MIN TEMP: 48; 6HR MAX TEMP: 58;  
 
LIBERTY FAIR 45 38 75 E6 30.18R  
SPARTANBURG FAIR 46 28 49 CALM 30.19R  
CLEMSON FAIR 50 35 56 S3 30.19R  
6HR MIN TEMP: 50; 6HR MAX TEMP: 57;  
 
GREENVILLE FAIR 49 34 56 E3 30.19S  
6HR MIN TEMP: 49; 6HR MAX TEMP: 59;  
 
GREENWOOD FAIR 42 35 76 S3 30.22R  
6HR MIN TEMP: 42; 6HR MAX TEMP: 56;  
 
GREER FAIR 48 31 51 S5 30.19R  
6HR MIN TEMP: 45; 6HR MAX TEMP: 58;  
 
ROCK HILL FAIR 42 35 76 CALM 30.21R  
6HR MIN TEMP: 40; 6HR MAX TEMP: 56;  
 
CHESTER FAIR 41 34 75 CALM 30.22R  
LAURENS FAIR 43 34 70 CALM 30.21R  
 
   
..CENTRAL SOUTH CAROLINA
 
 
 
CITY SKY/WX TMP DP RH WIND PRES REMARKS
 
COLUMBIA APT FAIR 43 39 86 CALM 30.22R  
6HR MIN TEMP: 43; 6HR MAX TEMP: 58;  
 
COLUMBIA OWENS FAIR 46 37 71 CALM 30.23R  
6HR MIN TEMP: 46; 6HR MAX TEMP: 58;  
 
MCENTIRE ANGB CLEAR 42 39 90 CALM 30.22R  
6HR MIN TEMP: 41; 6HR MAX TEMP: 58;  
 
ORANGEBURG FAIR 43 33 68 CALM 30.23R  
6HR MIN TEMP: 43; 6HR MAX TEMP: 56;  
 
SUMTER SHAW FAIR 45 35 68 CALM 30.22R  
6HR MIN TEMP: 43; 6HR MAX TEMP: 57;  
 
NEWBERRY FAIR 43 37 81 SW5 30.24R  
AIKEN FAIR 39 34 81 CALM 30.25S  
BARNWELL FAIR 43 37 81 CALM 30.23R  
MANNING FAIR 41 39 93 CALM 30.23R  
CAMDEN FAIR 43 37 81 CALM 30.23R  
LANCASTER FAIR 45 36 70 CALM 30.22R  
WINNSBORO FAIR 46 36 66 SW3 30.21R  
 
   
..EASTERN AND COASTAL SOUTH CAROLINA
 
 
 
CITY SKY/WX TMP DP RH WIND PRES REMARKS
 
MYRTLE BEACH FAIR 47 43 86 CALM 30.24R  
6HR MIN TEMP: 46; 6HR MAX TEMP: 56;  
 
N MYRTLE BCH FAIR 46 41 82 SW5 30.22R  
6HR MIN TEMP: 44; 6HR MAX TEMP: 54;  
 
CONWAY FAIR 37 37 100 CALM 30.23R  
MARION FAIR 41 36 81 CALM 30.24R  
HARTSVILLE FAIR 41 36 81 CALM 30.21R  
FLORENCE FAIR 45 35 68 CALM 30.22R  
6HR MIN TEMP: 45; 6HR MAX TEMP: 57;  
 
DARLINGTON FAIR 41 37 86 SW3 30.23R  
6HR MIN TEMP: 41; 6HR MAX TEMP: 56;  
 
CHARLESTON APT FAIR 45 38 76 SW7 30.23R  
6HR MIN TEMP: 45; 6HR MAX TEMP: 60;  
 
MOUNT PLEASANT FAIR 45 43 93 CALM 30.24R  
WALTERBORO FAIR 41 36 81 CALM 30.25R  
BEAUFORT FAIR 50 44 80 CALM 30.24R  
6HR MIN TEMP: 47; 6HR MAX TEMP: 60;  
 
HILTON HEAD CLEAR 46 43 87 S3 30.24R  
 
   
..EASTERN GEORGIA
 
 
 
CITY SKY/WX TMP DP RH WIND PRES REMARKS
 
AUGUSTA BUSH F FAIR 45 36 70 CALM 30.21S  
6HR MIN TEMP: 44; 6HR MAX TEMP: 61;  
 
AUGUSTA DANIEL FAIR 52 34 50 CALM 30.22R  
6HR MIN TEMP: 52; 6HR MAX TEMP: 60;  
 
THOMSON FAIR 43 38 84 CALM 30.26R  
6HR MIN TEMP: 42; 6HR MAX TEMP: 60;  
 
CLAXTON FAIR 44 41 87 CALM 30.24R  
6HR MIN TEMP: 44; 6HR MAX TEMP: 61;  
 
SYLVANIA FAIR 45 38 76 CALM 30.24R  
6HR MIN TEMP: 45; 6HR MAX TEMP: 59;  
 
STATESBORO FAIR 41 38 89 CALM 30.24R  
6HR MIN TEMP: 41; 6HR MAX TEMP: 59;  
 
SAVANNAH FAIR 47 36 65 CALM 30.24R  
6HR MIN TEMP: 47; 6HR MAX TEMP: 60;  
 
   
..SOUTHERN NORTH CAROLINA
 
 
 
CITY SKY/WX TMP DP RH WIND PRES REMARKS
 
CHARLOTTE FAIR 48 31 51 S6 30.21R  
6HR MIN TEMP: 48; 6HR MAX TEMP: 57;  
 
MONROE FAIR 47 32 56 W6 30.20R  
6HR MIN TEMP: 46; 6HR MAX TEMP: 56;  
 
WADESBORO FAIR 40 36 85 CALM 30.21R  
ROCKINGHAM FAIR 45 34 66 CALM 30.21R  
RUTHERFORDTON FAIR 45 32 61 W5 30.21R  
ASHEVILLE FAIR 36 30 79 N10 30.23R WCI 28  
6HR MIN TEMP: 36; 6HR MAX TEMP: 49;  
 

 
 
 
CLICK HERE TO GO TO PREVIOUS BULLETINS.

The Nexlab SC Page
The Nexlab GA Page Main Text Page